timestamp,gas_concentrations,,corrected_fluxes_and_quality_flags,,,,,,,,,,storage_terms,,,turbulence,,,footprint,,
ISOdate,CO2_1_1_1,H2O_1_1_1,Tau_1_1_1,QcTau_1_1_1,H_1_1_1,QcH_1_1_1,LE_1_1_1, QcLE_1_1_1,Fc_1_1_1, QcFc_1_1_1,E_1_1_1, QcE_1_1_1,Sa_1_1_1,Sw_1_1_1,Sc_1_1_1,ustar_1_1_1,MO_length_1_1_1,ZL_1_1_1,Fetchmax_1_1_1,Fetch70_1_1_1,Fetch90_1_1_1
yyyymmddHHMM,[µmol+1mol_a-1],[mmol+1mol_a-1],[kg+1m-1s-2],[#],[W+1m-2],[#],[W+1m-2],[#],[µmol+1s-1m-2],[#],[mmol+1s-1m-2],[#],[W+1m-2],[W+1m-2],[µmol+1s-1m-2],[m+1s-1],[m],[#],[m],[m],[m]
201806110030,397.28047457043431,9.8510335198509669,0.64416395298240892,0,-1.0602861787431914,0,59.194426299331056,0,-2.1250798267413686,0,1.3410579804857781,0,-9999.,-9999.,-9999.,0.75936570336985776,34676.984656545494,6.22891529178067342E-004,109.56143714031201,200.31324992065760,300.10575023440930
201806110100,397.75395017345204,9.6253205817173733,0.84292753467323600,0,-20.102634705105149,1,88.708442128205292,0,-2.0184885164911277,1,2.0087452515263187,0,-10.829701794672165,-7.5163747455815599,0.35703392742267437,0.86785051319764850,2730.2460971193937,7.91137473753357121E-003,110.02788899159579,201.16607267199205,301.38343412056054
201806110130,398.96700234116258,9.5668377928533541,0.52177396171772505,0,-57.538367336247063,0,58.856997383354525,0,1.8842811171376517,0,1.3318915724827722,0,-15.184663896755559,-1.9535282402907481,0.91694199993907455,0.68196318919522525,462.86733772328245,4.66656388118558557E-002,109.77799577303071,200.70918816910080,300.69893787997250
201806110200,400.04936112847395,9.5899058571601365,0.48422558355408518,0,-56.569999375034392,0,33.488713403302619,0,2.8061210922026336,0,0.75726273802130761,0,-17.005033017288007,0.77336932939833236,0.82053132062785006,0.65601645685766463,419.15005662590954,5.15328571678518241E-002,118.38214213242476,216.44031186580762,324.26702776369433
201806110230,400.28734039360910,9.9779949723914552,0.31780088299095521,0,-60.896322374975114,0,22.809855212916737,0,3.3821669334714777,0,0.51544533826625882,0,-15.234066165908569,13.055168580540451,0.18090485766894424,0.53077053521022954,206.29099428158830,0.10470646125499733,113.05742785131717,206.70503592942481,309.68181041145039
201806110300,402.22018362492486,10.091003967819200,7.46901935637372671E-002,0,-23.771527469493059,0,-1.4914051741699266,2,0.87453674997599817,0,-3.36765890979969229E-002,2,-17.390327811742363,3.8153409729848033,1.4734975747018098,0.25695053156778819,59.964922565525704,0.36021058772146247,95.896328643669023,175.32907332597338,262.67490098251744
201806110330,403.06163759518779,10.113024237816184,0.17224875320780944,0,-49.870589150763003,0,24.335899017103088,0,3.0494421381488328,0,0.54913285669231637,0,-16.104947749736262,0.74588454121188130,0.64314569344279138,0.38970365840470833,99.722437935201896,0.21660120277078815,116.09007178964782,212.24967626086931,317.98869199370819
201806110400,404.25974148728449,10.289778185118552,0.18863237890589937,0,-55.177004665403430,0,12.142042305172120,0,3.7101838205967703,0,0.27384610676142390,0,-11.490540476278323,6.0020498392251174,0.91757122218882547,0.40742340870866600,103.01260461100499,0.20968307792590696,114.62343309856011,209.56819297314175,313.97134139846173
201806110430,405.51398201261355,9.8321220629340047,0.10457218161384564,0,-30.556309195057992,0,19.193056347431657,0,2.1082705688674790,0,0.43263963943395034,0,-12.450586330562468,-15.577574223538459,0.96232895114516026,0.30304666651405016,76.537334784975641,0.28221520988002974,98.799767116726329,180.63748485892862,270.62786877811521
201806110500,407.50212750729992,9.9912605300609290,9.22359789226554344E-002,0,-35.651236669369567,0,15.907345279892629,0,2.2543515554676836,0,0.35836548167781446,0,-13.611925242591434,5.4307494773753158,1.5284851553651746,0.28433449706334141,54.179586888037392,0.39867413615826564,111.53625964425615,203.92385529520092,305.51509502391724
201806110530,409.95763803816999,10.092130674689830,0.10025900642651374,0,-26.865736936998093,0,14.640760739940452,0,2.1753455512508939,0,0.32960569156925235,0,-16.005465005200154,3.4530376820440480,1.8923938769845283,0.29608816590019299,81.184952855218938,0.26605915554967841,107.92608604453430,197.32330654909504,295.62627022479143
201806110600,411.35087411339009,10.089624621689238,0.11038979316033852,0,-33.918176625681063,0,13.653384514698262,0,1.3052434383430001,0,0.30728670100318189,0,-6.8786915397647785,-8.59070767692778903E-002,1.0748969841023626,0.31051844653297700,74.173011042720901,0.29121104423762983,105.96342107673443,193.73492902807075,290.25022681030021
201806110630,413.54912325668334,9.9319323681633644,7.13643640665185403E-002,0,-16.550188700354930,0,6.1393961910763748,0,0.60482962589467959,0,0.13811784143049471,0,-9.6809838897327793,-5.4146923274641301,1.6981046812511207,0.24950424618366593,78.842007432409744,0.27396562699798593,95.180228311119450,174.01981352958569,260.71339122915708
201806110700,414.54802633631544,9.5390315238282621,0.18752677386126126,0,-54.305374623869142,0,11.054712252628605,0,2.8725218080516517,0,0.24857776979237350,0,-11.317751796109818,-13.515924621549605,0.77268235648929706,0.40414894873544943,102.08328435805089,0.21159193824759126,113.83268548526817,208.12245414002791,311.80536117834896
201806110730,411.31826738936792,8.5622877441347462,0.47394173834405728,0,-70.462554133540834,0,103.37174840769256,1,7.5005457712489250,0,2.3252611889192099,1,8.3708462007682893,-33.537172077147531,-2.4945130252857592,0.64286947372265169,316.55190773593461,6.82352545416297779E-002,116.20804201146727,212.46536345102774,318.31183070791747
201806110800,410.07337911236607,8.1590821644875824,0.33462252535169429,0,-45.990865245115941,0,26.611789809092226,0,2.9644862284622739,0,0.59872867567962307,0,4.6432768120222718,-13.830970965287925,-0.96075463395869920,0.54034542317996570,287.96210832959662,7.50098689209380415E-002,104.11166004145593,190.34931926669060,285.17796644887937
201806110830,410.78088218563209,7.8405286765144311,0.47509577559668886,0,-66.425079390378272,0,35.013996387227451,0,8.8765435727404061,0,0.78742780989720029,0,-10.096396532139392,-10.948521674831161,0.54685289394416803,0.64332170311192616,336.43840981542451,6.42019441592596579E-002,117.35547790206417,214.56324221494637,321.45483537983017
201806110900,411.52655699581743,7.6984018592859940,0.32256050664174696,0,-51.552732079514996,0,10.412010653276999,0,2.9775578094764010,0,0.23400574277513742,0,-15.015245431461574,-4.8998479826822088,0.57776065024604184,0.52942367546831459,241.61851048463095,8.93971242380204589E-002,117.18665991048948,214.25458908461098,320.99241674662346
201806110930,412.69948668652273,7.7866331528272372,0.31686333754074741,0,-46.146708593304027,0,9.0501099754503116,0,1.7399573520156859,0,0.20332731637232762,0,-8.1446349246425918,3.0473107789105263,0.91013947925540206,0.52435121858803946,262.28044592774825,8.23545953782245238E-002,109.95156400112815,201.02652624681005,301.17436814694986
201806111000,413.44586625287309,8.0261430747337972,0.33777326685636266,0,-61.647462860850155,0,3.4664963572363758,0,3.4391708797332785,0,7.78593832281019860E-002,0,-6.6147881477145649,8.2849264286994249,0.57988930514981907,0.54105816514697747,215.74780213268531,0.10011689475620225,119.67406999137971,218.80236803123449,327.80581832249175
201806111030,413.37698783043629,8.2546071762232298,0.21671147217342612,0,-36.408393258489447,0,4.9421919373331011,1,1.6566885280001862,0,0.11099699310484670,1,-1.5563333397920889,7.9071409897168561,-5.35397465805753647E-002,0.43329852009453729,187.66332155280966,0.11509974256701848,105.31175268586006,192.54347137057911,288.46520612736640
201806111100,411.65703565682009,8.2847571104987345,0.34708109070295928,0,-37.272169021355637,0,20.529889542119125,0,-0.38180450309905400,1,0.46117258631384622,0,4.6364356125863502,1.0427474257243528,-1.3362447073430126,0.54849915239688563,371.90251166401407,5.80797368196157154E-002,117.13107548597360,214.15296302885301,320.84016239640601
201806111130,409.00600700870308,8.6446936722880299,0.51691630860278381,0,-38.979810387965273,1,30.034993471300037,0,-1.5227596865980715,2,0.67503603496208964,0,12.077732187321823,12.421458945974168,-2.0561769227897382,0.66998030190600022,648.22427455369291,3.33218005679774276E-002,118.43512647284784,216.53718413858968,324.41216008076117
201806111200,406.25208410695870,8.6687763944919123,0.53172260965378138,0,12.727175167579855,1,56.791406963620361,0,-5.9732211014553185,0,1.2770565351758778,0,12.352410427745149,0.82934985813778483,-2.1326101508296333,0.68004812480975652,-2076.7030933318588,-1.04011016641502654E-002,114.68823890644782,209.68667865871282,314.14885454636595
201806111230,404.29712630662488,8.9305041589700789,0.85069022102472180,0,43.116492105198205,0,77.137710521916233,0,-8.0981495643693489,0,1.7357776111953283,0,16.190257050395111,8.9850117079150085,-1.5101969070527295,0.86126365104493630,-1245.3589794519257,-1.73443965606655988E-002,121.70155510096339,222.50925744476351,333.35941414764932
201806111300,402.72266467708545,9.2700991719670824,0.97864152680595073,0,114.33195244287174,0,132.94802613491069,0,-12.425087153709107,0,2.9937644961417957,0,16.593099079281078,11.615642290815973,-1.2126898603078851,0.92518687025339286,-582.05563487180291,-3.71098546357297582E-002,123.78508000879994,226.31860548247573,339.06651166223918
201806111330,400.60293035760481,9.6679638344451782,0.82616802769064268,0,121.09577561924371,0,111.49733865611292,0,-12.082934403495933,0,2.5131804727050366,0,22.687726382369995,13.549248983145251,-1.6271232936866997,0.85157702458797435,-428.60510034150201,-5.03960405109263807E-002,119.60451213737899,218.67519408978148,327.61528858406882
201806111400,398.90207511991309,10.114839722028334,1.1694498006789766,0,119.33907484085130,0,120.51676031065476,0,-10.329881582179537,0,2.7194196316476069,0,25.040587317213571,15.142899805651574,-1.3005236631256067,1.0152229542065665,-736.97916030970373,-2.93088341750707658E-002,120.34900386763901,220.03636241615575,329.65456677432167
201806111430,397.42398743440179,10.215992674290694,1.2182784161078259,0,201.72640007884686,0,164.42893428696931,0,-15.275514349078009,0,3.7135346761318684,0,20.202462345958082,3.4135787769552599,-1.1265249308441410,1.0379045081116971,-465.84482321953521,-4.63673715438514822E-002,111.66822231151244,204.16512513827951,305.87656121397066
201806111500,396.28629723665665,10.284607811541681,1.6538817918327466,0,264.20923926521539,0,196.20735948343551,0,-16.733282099701206,0,4.4341578353536386,0,15.165029195364506,2.3074922564997271,-0.86464968359367989,1.2110281301271262,-564.82180686865695,-3.82421495369473993E-002,118.78703830117487,217.18059119729256,325.37610109881473
201806111530,395.07446983267494,10.364824081328017,1.8297429427195135,0,254.70559925741196,0,178.52391133001774,0,-14.758862012395607,0,4.0366169263439327,0,11.886255659556522,2.6900497366336587,-0.91888203371003163,1.2752702865567098,-683.96596262761534,-3.15805188857915461E-002,118.39439861502009,216.46272062499651,324.30060016836990
201806111600,394.26146505573047,10.205669950797457,1.6742829478738852,0,285.54937424933439,0,216.22692765747038,0,-16.972256470563167,0,4.8912826549420556,0,10.098055819512910,-5.3251794011370031,-0.61535028946084946,1.2209653743998379,-535.31451460085088,-4.03501108429793129E-002,115.79336493446489,211.70720149979698,317.17596594977783
201806111630,394.64053863687974,9.7694239160639746,1.9005197370322240,0,355.12022332254566,0,397.16863749700042,0,-22.166481317431259,0,8.9897174040582115,0,13.555227052155480,-14.562678231031869,0.28642068035294199,1.3018573100011772,-521.89850284722354,-4.13873576608496524E-002,123.27886106442574,225.39307580190814,337.67989954715955
201806111700,395.46403052106649,9.0588752559715857,1.3124950454538207,0,313.27197576516488,0,177.18634530597095,0,-14.658184992895423,0,4.0126736783015566,0,12.183200543414340,-23.669939137711598,0.62124975804195703,1.0825661696333404,-340.22909728236931,-6.34866334847114105E-002,118.57343748919990,216.79006078851742,324.79101538251172
201806111730,397.18858043499574,8.4600199742324769,1.0169013361276229,0,322.02413381107732,0,364.63288556262097,0,-19.525488680834620,0,8.2640151671061091,0,17.330322685146339,-19.891173889089522,1.2982238092731400,0.95381081536001966,-226.44308778892380,-9.53882064182686867E-002,115.78214821178676,211.68669375335114,317.14524160860128
201806111800,398.05337360425250,7.7799708885898227,0.85800699316583018,0,264.22809337433836,0,176.80177884365270,0,-12.369820860367252,0,4.0087658010619283,0,9.8428532993404723,-22.545577934991552,0.65006594705602716,0.87665064015536021,-214.26016227091506,-0.10081202110119056,114.01110790508376,208.44866722836295,312.29408782848242
201806111830,397.06546145833551,8.0899309981530259,0.91652854268649708,0,283.93471300737360,0,248.28067707505645,0,-15.556071357233513,0,5.6302299949985377,0,3.0805443377089685,10.263745984359849,-0.74182528053650920,0.90658931411000354,-220.44252969172024,-9.79847220507163857E-002,120.17067281123053,219.71031636926776,329.16609038271486
201806111900,396.69163623912675,8.1659314659338325,0.91866731822627978,0,274.06400739767622,0,278.24535617615373,0,-13.993471195350191,0,6.3145869139098645,0,17.319901250124321,2.5068100124367052,-0.27982774476925920,0.90908304068507961,-230.20505073459401,-9.38293922356329413E-002,116.09114885278491,212.25164547579556,317.99164223650564
201806111930,396.65284930649943,8.0031099746139507,1.2802698852584735,0,251.36361277616359,0,269.78127554807537,0,-19.027438371484280,0,6.1227496666727754,0,0.91586912685930832,-5.3641958342182630,-2.90010039014787120E-002,1.0737645637066444,-413.29561501992418,-5.22628337079228539E-002,120.70299640096971,220.68357366721216,330.62420716573547
201806112000,397.24356699895901,7.7110624417129738,1.1781665313184702,0,93.548240852160021,0,221.14102891204305,0,-17.650660350000202,0,5.0176287171522667,0,-5.4695420992871204,-9.6304302857353452,0.44197868430037140,1.0296525903395193,-979.03082183968559,-2.20626353309405394E-002,121.26998438675189,221.72020853676526,332.17727509993153
201806112030,397.71555855419382,7.2822473710918461,0.92719949278654190,0,32.615653292491274,0,207.24123317898980,0,-17.748074121675149,0,4.7023236634072481,0,0.37109409719260716,-14.147043026849223,0.35331836603355976,0.91313153006190761,-1959.1697995793886,-1.10250780737010511E-002,116.58356578331478,213.15194067312919,319.34044849737586
201806112100,396.98109807005710,7.4219510725703595,0.85355539403525793,0,83.536661560513224,0,247.13763035461599,0,-18.897344941392440,0,5.6093741797261689,0,7.2101301050563977,4.6022290803260386,-0.54916681619435082,0.87664179297148837,-676.85100986392479,-3.19124883988021260E-002,113.91994340172747,208.28198944080057,312.04437413004445
201806112130,395.96610446461000,7.7680369086641541,0.77985212309348284,0,142.72580550032649,0,216.85376613875820,0,-16.107332944216445,0,4.9241389595885199,0,9.7096249629679861,11.377364388073222,-0.75767765475396531,0.83868385653770694,-346.88181193204457,-6.22690474305741953E-002,115.05627610444800,210.35956803610108,315.15696545019210
201806112200,395.19010306456232,8.4247531877068287,0.68465808979445875,0,132.01589973717660,0,174.22371898483129,0,-11.329285987162784,0,3.9556944828068259,0,-2.4755792187868710,21.598057293585864,-0.57944854057825035,0.78580993790040798,-308.48590971602880,-7.00194054888390038E-002,119.69893811405643,218.84783489076850,327.87393596322022
201806112230,394.76209413377825,9.4399995113978061,0.47672060844585806,0,82.658984693471908,0,196.44006018427595,1,-5.6358630166968968,0,4.4602752785498279,1,0.83480951110682822,33.380043222516164,-0.31952136654175955,0.65591701916446121,-286.55165306866604,-7.53790800670203071E-002,112.63970633758758,205.94130777688343,308.53760646945278
201806112300,395.00276303090106,9.7338676846268353,0.29129381347759203,0,-7.9291557524576985,1,75.742921263925808,0,-7.5510550701381609,0,1.7187574594132733,0,-13.422500838137816,9.6833476197506592,0.17995564820304263,0.51233917418739661,1423.1836192047851,1.51772404547975120E-002,115.82436725720926,211.76388363345740,317.26088611483829
201806112330,394.33812141214844,10.256504259983233,0.18684331038837193,0,-25.878703950471262,0,55.149755438468311,0,-4.6407990309903298,0,1.2506479567092081,0,-14.603957326408489,17.270112992987926,-0.49805166833063091,0.40992377763120696,223.34886078880834,9.67096940799903326E-002,106.69462440986432,195.07180192637423,292.25310602209635
201806120000,393.34651317442587,11.362159384949015,0.32032183778838647,0,-14.227579486655658,0,-3.6900004999331100,2,-5.2786774810583763,0,-8.36508123884734806E-002,2,-7.6877680660566927,36.574128248257708,-0.74359791631361427,0.53665252777485695,911.36933649932223,2.37005998939663308E-002,108.95233743841334,199.19962140320055,298.43733178557352
